| time (UTC) | temp F | wind direction | speed MPH | gust MPH | rain 1hr in | rain 24hr in | rain mn in | humidity % | barometer mb |
| 20260504081823 | 46 | 149 | 6.0 | 7.0 | 0.00 | 0.00 | 0.00 | 99 | 1015.2 |
| 20260504081320 | 46 | 149 | 6.0 | 7.0 | 0.00 | 0.00 | 0.00 | 99 | 1015.2 |
| 20260504080816 | 46 | 121 | 5.0 | 6.0 | 0.00 | 0.00 | 0.00 | 99 | 1015.3 |
| 20260504080313 | 46 | 121 | 5.0 | 6.0 | 0.00 | 0.00 | 0.00 | 99 | 1015.3 |
| 20260504070240 | 48 | 97 | 4.0 | 4.0 | 0.00 | 0.00 | 0.00 | 99 | 1016.1 |
| 20260504060201 | 49 | 21 | 2.0 | 2.0 | 0.00 | 0.00 | 0.00 | 99 | 1016.6 |
| 20260504050629 | 50 | 242 | 3.0 | 3.0 | 0.00 | 0.00 | 0.00 | 99 | 1016.9 |
| 20260504050126 | 50 | 242 | 3.0 | 3.0 | 0.00 | 0.00 | 0.00 | 99 | 1016.9 |
| 20260504045623 | 50 | 314 | 4.0 | 4.0 | 0.00 | 0.00 | 0.00 | 99 | 1016.8 |
| 20260504045118 | 50 | 314 | 4.0 | 4.0 | 0.00 | 0.00 | 0.00 | 99 | 1016.8 |
| 20260504044616 | 51 | 259 | 4.0 | 6.0 | 0.00 | 0.00 | 0.00 | 99 | 1016.9 |
| 20260504044112 | 51 | 259 | 4.0 | 6.0 | 0.00 | 0.00 | 0.00 | 99 | 1016.9 |
| 20260504043610 | 52 | 234 | 4.0 | 4.0 | 0.00 | 0.00 | 0.00 | 99 | 1017.1 |
| 20260504043107 | 52 | 234 | 4.0 | 4.0 | 0.00 | 0.00 | 0.00 | 99 | 1017.1 |
| 20260504042604 | 53 | 278 | 6.0 | 7.0 | 0.00 | 0.00 | 0.00 | 99 | 1016.9 |
| 20260504042100 | 53 | 278 | 6.0 | 7.0 | 0.00 | 0.00 | 0.00 | 99 | 1016.9 |
| 20260504041556 | 54 | 265 | 2.0 | 2.0 | 0.00 | 0.00 | 0.00 | 99 | 1016.9 |
| 20260504041053 | 54 | 265 | 2.0 | 2.0 | 0.00 | 0.00 | 0.00 | 99 | 1016.9 |
| 20260504040550 | 54 | 199 | 2.0 | 2.0 | 0.00 | 0.00 | 0.00 | 99 | 1016.8 |
| 20260504040047 | 55 | 83 | 1.0 | 1.0 | 0.00 | 0.00 | 0.00 | 99 | 1017.1 |
| 20260504035543 | 55 | 83 | 1.0 | 1.0 | 0.00 | 0.00 | 0.00 | 99 | 1017.1 |
| 20260504035040 | 54 | 145 | 2.0 | 2.0 | 0.00 | 0.00 | 0.00 | 99 | 1017.2 |
| 20260504034538 | 54 | 145 | 2.0 | 2.0 | 0.00 | 0.00 | 0.00 | 99 | 1017.2 |
| 20260504034034 | 55 | 129 | 0.0 | 0.0 | 0.00 | 0.00 | 0.00 | 99 | 1017.1 |
| 20260504033533 | 55 | 129 | 0.0 | 0.0 | 0.00 | 0.00 | 0.00 | 99 | 1017.1 |
| 20260504033030 | 55 | 156 | 4.0 | 7.0 | 0.00 | 0.00 | 0.00 | 99 | 1017.1 |
| 20260504032527 | 55 | 156 | 4.0 | 7.0 | 0.00 | 0.00 | 0.00 | 99 | 1017.1 |
| 20260504032023 | 55 | 27 | 2.0 | 3.0 | 0.00 | 0.00 | 0.00 | 99 | 1016.9 |
| 20260504031520 | 55 | 27 | 2.0 | 3.0 | 0.00 | 0.00 | 0.00 | 99 | 1016.9 |
| 20260504031016 | 56 | 87 | 4.0 | 6.0 | 0.00 | 0.00 | 0.00 | 99 | 1016.8 |
| 20260504030514 | 56 | 87 | 4.0 | 6.0 | 0.00 | 0.00 | 0.00 | 99 | 1016.8 |
| 20260504030010 | 56 | 251 | 2.0 | 4.0 | 0.00 | 0.00 | 0.00 | 99 | 1016.7 |
| 20260504025507 | 56 | 251 | 2.0 | 4.0 | 0.00 | 0.00 | 0.00 | 99 | 1016.7 |
| 20260504025004 | 56 | 27 | 2.0 | 2.0 | 0.00 | 0.00 | 0.00 | 99 | 1016.7 |
| 20260504024500 | 56 | 27 | 2.0 | 2.0 | 0.00 | 0.00 | 0.00 | 99 | 1016.7 |
| 20260504023958 | 56 | 166 | 8.0 | 9.0 | 0.00 | 0.00 | 0.00 | 99 | 1016.3 |
| 20260504023454 | 56 | 166 | 8.0 | 9.0 | 0.00 | 0.00 | 0.00 | 99 | 1016.3 |
| 20260504022950 | 56 | 153 | 5.0 | 7.0 | 0.00 | 0.00 | 0.00 | 99 | 1016.3 |
| 20260504022446 | 56 | 153 | 5.0 | 7.0 | 0.00 | 0.00 | 0.00 | 99 | 1016.3 |
| 20260504021943 | 57 | 178 | 7.0 | 9.0 | 0.00 | 0.00 | 0.00 | 99 | 1016.4 |
| 20260504021440 | 57 | 178 | 7.0 | 9.0 | 0.00 | 0.00 | 0.00 | 99 | 1016.4 |
| 20260504020937 | 57 | 154 | 6.0 | 8.0 | 0.00 | 0.00 | 0.00 | 99 | 1016.3 |
| 20260504020434 | 57 | 154 | 6.0 | 8.0 | 0.00 | 0.00 | 0.00 | 99 | 1016.3 |
| 20260504015931 | 57 | 172 | 3.0 | 4.0 | 0.00 | 0.00 | 0.00 | 99 | 1016.3 |
| 20260504015427 | 57 | 172 | 3.0 | 4.0 | 0.00 | 0.00 | 0.00 | 99 | 1016.3 |
| 20260504014923 | 57 | 139 | 3.0 | 6.0 | 0.00 | 0.00 | 0.00 | 99 | 1016.3 |
| 20260504014419 | 57 | 139 | 3.0 | 6.0 | 0.00 | 0.00 | 0.00 | 99 | 1016.3 |
| 20260504013916 | 58 | 211 | 5.0 | 7.0 | 0.00 | 0.00 | 0.00 | 99 | 1016.1 |
| 20260504013415 | 58 | 211 | 5.0 | 7.0 | 0.00 | 0.00 | 0.00 | 99 | 1016.1 |
| 20260504012910 | 58 | 271 | 4.0 | 6.0 | 0.00 | 0.00 | 0.00 | 99 | 1016.1 |
| 20260504012408 | 58 | 271 | 4.0 | 6.0 | 0.00 | 0.00 | 0.00 | 99 | 1016.1 |
| 20260504011905 | 59 | 246 | 5.0 | 7.0 | 0.00 | 0.00 | 0.00 | 99 | 1016.3 |
| 20260504011402 | 59 | 246 | 5.0 | 7.0 | 0.00 | 0.00 | 0.00 | 99 | 1016.3 |
| 20260504010858 | 59 | 139 | 5.0 | 8.0 | 0.00 | 0.00 | 0.00 | 99 | 1016.1 |
| 20260504010354 | 59 | 139 | 5.0 | 8.0 | 0.00 | 0.00 | 0.00 | 99 | 1016.1 |
| 20260504005850 | 59 | 273 | 6.0 | 10.0 | 0.00 | 0.00 | 0.00 | 99 | 1016.1 |
| 20260504005347 | 59 | 273 | 6.0 | 10.0 | 0.00 | 0.00 | 0.00 | 99 | 1016.1 |
| 20260504004845 | 59 | 244 | 4.0 | 6.0 | 0.00 | 0.00 | 0.00 | 99 | 1016.1 |
| 20260504004343 | 59 | 244 | 4.0 | 6.0 | 0.00 | 0.00 | 0.00 | 99 | 1016.1 |
| 20260504003839 | 59 | 161 | 10.0 | 13.0 | 0.00 | 0.00 | 0.00 | 99 | 1016.2 |
| 20260504003336 | 59 | 161 | 10.0 | 13.0 | 0.00 | 0.00 | 0.00 | 99 | 1016.2 |
| 20260504002832 | 60 | 274 | 6.0 | 10.0 | 0.00 | 0.00 | 0.00 | 99 | 1015.9 |
| 20260504002329 | 60 | 274 | 6.0 | 10.0 | 0.00 | 0.00 | 0.00 | 99 | 1015.9 |
| 20260504001827 | 61 | 289 | 4.0 | 7.0 | 0.00 | 0.00 | 0.00 | 99 | 1016.1 |
| 20260504001324 | 61 | 289 | 4.0 | 7.0 | 0.00 | 0.00 | 0.00 | 99 | 1016.1 |
| 20260504000821 | 62 | 262 | 6.0 | 9.0 | 0.00 | 0.00 | 0.00 | 99 | 1016.1 |
| 20260504000318 | 62 | 262 | 6.0 | 9.0 | 0.00 | 0.00 | 0.00 | 99 | 1016.1 |
| 20260503235815 | 60 | 152 | 16.0 | 19.0 | 0.00 | 0.00 | 0.00 | 99 | 1016.4 |
| 20260503235313 | 60 | 152 | 16.0 | 19.0 | 0.00 | 0.00 | 0.00 | 99 | 1016.4 |
| 20260503234810 | 60 | 199 | 15.0 | 18.0 | 0.00 | 0.00 | 0.00 | 99 | 1015.9 |
| 20260503234308 | 60 | 199 | 15.0 | 18.0 | 0.00 | 0.00 | 0.00 | 99 | 1015.9 |
| 20260503233806 | 60 | 166 | 10.0 | 15.0 | 0.00 | 0.00 | 0.00 | 99 | 1015.9 |
| 20260503233301 | 60 | 166 | 10.0 | 15.0 | 0.00 | 0.00 | 0.00 | 99 | 1015.9 |
| 20260503232758 | 60 | 129 | 4.0 | 6.0 | 0.00 | 0.00 | 0.00 | 99 | 1016.4 |
| 20260503232255 | 60 | 129 | 4.0 | 6.0 | 0.00 | 0.00 | 0.00 | 99 | 1016.4 |
| 20260503231753 | 61 | 164 | 10.0 | 15.0 | 0.00 | 0.00 | 0.00 | 99 | 1016.3 |
| 20260503231250 | 61 | 164 | 10.0 | 15.0 | 0.00 | 0.00 | 0.00 | 99 | 1016.3 |
| 20260503230745 | 61 | 125 | 9.0 | 13.0 | 0.00 | 0.00 | 0.00 | 99 | 1016.4 |
| 20260503230243 | 61 | 125 | 9.0 | 13.0 | 0.00 | 0.00 | 0.00 | 99 | 1016.4 |
| 20260503225741 | 60 | 180 | 14.0 | 17.0 | 0.00 | 0.00 | 0.00 | 99 | 1016.6 |
| 20260503225241 | 60 | 180 | 14.0 | 17.0 | 0.00 | 0.00 | 0.00 | 99 | 1016.6 |
| 20260503224738 | 61 | 256 | 7.0 | 9.0 | 0.00 | 0.00 | 0.00 | 99 | 1016.2 |
| 20260503224236 | 61 | 256 | 7.0 | 9.0 | 0.00 | 0.00 | 0.00 | 99 | 1016.2 |
| 20260503223733 | 60 | 151 | 6.0 | 10.0 | 0.00 | 0.00 | 0.00 | 99 | 1016.6 |
| 20260503223231 | 60 | 151 | 6.0 | 10.0 | 0.00 | 0.00 | 0.00 | 99 | 1016.6 |
| 20260503222727 | 59 | 38 | 8.0 | 11.0 | 0.00 | 0.00 | 0.00 | 99 | 1016.3 |
| 20260503222225 | 59 | 38 | 8.0 | 11.0 | 0.00 | 0.00 | 0.00 | 99 | 1016.3 |
| 20260503221723 | 60 | 167 | 13.0 | 15.0 | 0.00 | 0.00 | 0.00 | 99 | 1016.6 |
| 20260503221220 | 60 | 167 | 13.0 | 15.0 | 0.00 | 0.00 | 0.00 | 99 | 1016.6 |
| 20260503220717 | 60 | 167 | 10.0 | 13.0 | 0.00 | 0.00 | 0.00 | 99 | 1017.2 |
| 20260503220214 | 60 | 167 | 10.0 | 13.0 | 0.00 | 0.00 | 0.00 | 99 | 1017.2 |
| 20260503215710 | 62 | 158 | 15.0 | 16.0 | 0.00 | 0.00 | 0.00 | 99 | 1017.2 |
| 20260503215207 | 62 | 158 | 15.0 | 16.0 | 0.00 | 0.00 | 0.00 | 99 | 1017.2 |
| 20260503214706 | 61 | 175 | 8.0 | 10.0 | 0.00 | 0.00 | 0.00 | 99 | 1017.1 |
| 20260503214202 | 61 | 175 | 8.0 | 10.0 | 0.00 | 0.00 | 0.00 | 99 | 1017.1 |
| 20260503213700 | 60 | 131 | 15.0 | 16.0 | 0.00 | 0.00 | 0.00 | 99 | 1016.9 |
| 20260503213157 | 60 | 131 | 15.0 | 16.0 | 0.00 | 0.00 | 0.00 | 99 | 1016.9 |
| 20260503212654 | 63 | 187 | 7.0 | 10.0 | 0.00 | 0.00 | 0.00 | 99 | 1017.6 |
| 20260503212151 | 63 | 187 | 7.0 | 10.0 | 0.00 | 0.00 | 0.00 | 99 | 1017.6 |
| 20260503211649 | 61 | 159 | 5.0 | 9.0 | 0.00 | 0.00 | 0.00 | 99 | 1017.6 |
| 20260503211144 | 61 | 159 | 5.0 | 9.0 | 0.00 | 0.00 | 0.00 | 99 | 1017.6 |
| 20260503210641 | 61 | 98 | 7.0 | 10.0 | 0.00 | 0.00 | 0.00 | 99 | 1017.6 |
| 20260503210138 | 61 | 98 | 7.0 | 10.0 | 0.00 | 0.00 | 0.00 | 99 | 1017.6 |
| 20260503205633 | 60 | 71 | 4.0 | 8.0 | 0.00 | 0.00 | 0.00 | 99 | 1017.9 |
| 20260503205130 | 60 | 71 | 4.0 | 8.0 | 0.00 | 0.00 | 0.00 | 99 | 1017.9 |
| 20260503204622 | 59 | 171 | 15.0 | 19.0 | 0.00 | 0.00 | 0.00 | 99 | 1018.1 |
| 20260503204119 | 59 | 171 | 15.0 | 19.0 | 0.00 | 0.00 | 0.00 | 99 | 1018.1 |
| 20260503203616 | 60 | 114 | 8.0 | 9.0 | 0.00 | 0.00 | 0.00 | 99 | 1018.6 |
| 20260503203113 | 60 | 114 | 8.0 | 9.0 | 0.00 | 0.00 | 0.00 | 99 | 1018.6 |
| 20260503202611 | 60 | 73 | 7.0 | 8.0 | 0.00 | 0.00 | 0.00 | 99 | 1018.6 |
| 20260503202109 | 60 | 73 | 7.0 | 8.0 | 0.00 | 0.00 | 0.00 | 99 | 1018.6 |
| 20260503201607 | 60 | 87 | 10.0 | 14.0 | 0.00 | 0.00 | 0.00 | 99 | 1018.6 |
| 20260503201103 | 60 | 87 | 10.0 | 14.0 | 0.00 | 0.00 | 0.00 | 99 | 1018.6 |
| 20260503200559 | 61 | 81 | 7.0 | 8.0 | 0.00 | 0.00 | 0.00 | 99 | 1018.7 |
| 20260503200056 | 61 | 81 | 7.0 | 8.0 | 0.00 | 0.00 | 0.00 | 99 | 1018.7 |
| 20260503195548 | 61 | 108 | 9.0 | 10.0 | 0.00 | 0.00 | 0.00 | 99 | 1018.7 |
| 20260503195044 | 61 | 108 | 9.0 | 10.0 | 0.00 | 0.00 | 0.00 | 99 | 1018.7 |
| 20260503194542 | 60 | 55 | 4.0 | 7.0 | 0.00 | 0.00 | 0.00 | 99 | 1018.8 |
| 20260503194041 | 60 | 55 | 4.0 | 7.0 | 0.00 | 0.00 | 0.00 | 99 | 1018.8 |
| 20260503193539 | 59 | 50 | 7.0 | 8.0 | 0.00 | 0.00 | 0.00 | 99 | 1018.9 |
| 20260503193039 | 59 | 50 | 7.0 | 8.0 | 0.00 | 0.00 | 0.00 | 99 | 1018.9 |
| 20260503192535 | 60 | 62 | 4.0 | 4.0 | 0.00 | 0.00 | 0.00 | 99 | 1018.7 |
| 20260503192031 | 60 | 62 | 4.0 | 4.0 | 0.00 | 0.00 | 0.00 | 99 | 1018.7 |
| 20260503191528 | 60 | 36 | 7.0 | 8.0 | 0.00 | 0.00 | 0.00 | 99 | 1018.6 |
| 20260503191025 | 60 | 36 | 7.0 | 8.0 | 0.00 | 0.00 | 0.00 | 99 | 1018.6 |
| 20260503190522 | 58 | 90 | 17.0 | 21.0 | 0.00 | 0.00 | 0.00 | 99 | 1018.9 |
| 20260503190019 | 58 | 90 | 17.0 | 21.0 | 0.00 | 0.00 | 0.00 | 99 | 1018.9 |
| 20260503185515 | 59 | 125 | 3.0 | 3.0 | 0.00 | 0.00 | 0.00 | 99 | 1019.3 |
| 20260503185015 | 59 | 125 | 3.0 | 3.0 | 0.00 | 0.00 | 0.00 | 99 | 1019.3 |
| 20260503184512 | 59 | 49 | 4.0 | 7.0 | 0.00 | 0.00 | 0.00 | 99 | 1019.3 |
| 20260503184008 | 59 | 49 | 4.0 | 7.0 | 0.00 | 0.00 | 0.00 | 99 | 1019.3 |
| 20260503183504 | 60 | 71 | 9.0 | 11.0 | 0.00 | 0.00 | 0.00 | 99 | 1019.6 |
| 20260503183002 | 60 | 71 | 9.0 | 11.0 | 0.00 | 0.00 | 0.00 | 99 | 1019.6 |
| 20260503182500 | 60 | 315 | 7.0 | 9.0 | 0.00 | 0.00 | 0.00 | 99 | 1019.7 |
| 20260503181957 | 60 | 315 | 7.0 | 9.0 | 0.00 | 0.00 | 0.00 | 99 | 1019.7 |
| 20260503181454 | 60 | 79 | 13.0 | 16.0 | 0.00 | 0.00 | 0.00 | 99 | 1019.7 |
| 20260503180950 | 60 | 79 | 13.0 | 16.0 | 0.00 | 0.00 | 0.00 | 99 | 1019.7 |
| 20260503180449 | 59 | 99 | 10.0 | 11.0 | 0.00 | 0.00 | 0.00 | 99 | 1019.8 |
| 20260503175945 | 59 | 99 | 10.0 | 11.0 | 0.00 | 0.00 | 0.00 | 99 | 1019.8 |
| 20260503175443 | 60 | 49 | 10.0 | 13.0 | 0.00 | 0.00 | 0.00 | 99 | 1019.7 |
| 20260503174939 | 59 | 81 | 4.0 | 4.0 | 0.00 | 0.00 | 0.00 | 99 | 1020.1 |
| 20260503174437 | 59 | 81 | 4.0 | 4.0 | 0.00 | 0.00 | 0.00 | 99 | 1020.1 |
| 20260503173937 | 58 | 79 | 10.0 | 15.0 | 0.00 | 0.00 | 0.00 | 99 | 1020.2 |
| 20260503173434 | 58 | 79 | 10.0 | 15.0 | 0.00 | 0.00 | 0.00 | 99 | 1020.2 |
| 20260503172931 | 58 | 115 | 3.0 | 6.0 | 0.00 | 0.00 | 0.00 | 99 | 1020.2 |
| 20260503172428 | 58 | 115 | 3.0 | 6.0 | 0.00 | 0.00 | 0.00 | 99 | 1020.2 |
| 20260503171924 | 62 | 358 | 2.0 | 3.0 | 0.00 | 0.00 | 0.00 | 99 | 1020.3 |
| 20260503171421 | 62 | 358 | 2.0 | 3.0 | 0.00 | 0.00 | 0.00 | 99 | 1020.3 |
| 20260503170919 | 58 | 84 | 12.0 | 15.0 | 0.00 | 0.00 | 0.00 | 99 | 1020.6 |
| 20260503170415 | 58 | 84 | 12.0 | 15.0 | 0.00 | 0.00 | 0.00 | 99 | 1020.6 |
| 20260503150807 | 56 | 56 | 10.0 | 11.0 | 0.00 | 0.00 | 0.00 | 99 | 1021.1 |
| 20260503150303 | 56 | 56 | 10.0 | 11.0 | 0.00 | 0.00 | 0.00 | 99 | 1021.1 |
| 20260503140228 | 53 | 74 | 8.0 | 9.0 | 0.00 | 0.00 | 0.00 | 99 | 1021.1 |
| 20260503131157 | 48 | 99 | 6.0 | 7.0 | 0.00 | 0.00 | 0.00 | 99 | 1021.1 |
| 20260503130654 | 47 | 119 | 6.0 | 7.0 | 0.00 | 0.00 | 0.00 | 99 | 1020.8 |
| 20260503130152 | 47 | 119 | 6.0 | 7.0 | 0.00 | 0.00 | 0.00 | 99 | 1020.8 |
| 20260503120117 | 46 | 92 | 9.0 | 10.0 | 0.00 | 0.00 | 0.00 | 99 | 1020.3 |
| 20260503110539 | 43 | 87 | 8.0 | 9.0 | 0.00 | 0.00 | 0.00 | 99 | 1020.1 |
| 20260503090426 | 44 | 135 | 10.0 | 11.0 | 0.00 | 0.00 | 0.00 | 99 | 1021.1 |